• In India
  • List of Countries
  • For 7 days
  • Water Temperature
  • Satellite Maps
  • Weather Map
  • Weather Widgets
  • user-avatar
    Login

    Hourly Weather Lezhe

    Today, 12 December, Tuesday

    Time Temperature Precipitation Wind Pressure Humidity
    00:00 +8°C° 0.2 mm 5 mps 739 mmHg 87%
    01:00 +8°C° 0.2 mm 5 mps 739 mmHg 86%
    02:00 +8°C° 0.1 mm 4 mps 739 mmHg 87%
    03:00 +10°C° 0.1 mm 4 mps 739 mmHg 87%
    04:00 +10°C° 0.1 mm 4 mps 739 mmHg 87%
    05:00 +10°C° 0 mm 4 mps 739 mmHg 87%
    06:00 +10°C° 0 mm 4 mps 739 mmHg 88%
    07:00 +10°C° 0 mm 4 mps 739 mmHg 88%
    08:00 +10°C° 0.1 mm 4 mps 740 mmHg 87%
    09:00 +11°C° 0.1 mm 4 mps 740 mmHg 86%
    10:00 +12°C° 0.1 mm 4 mps 740 mmHg 85%
    11:00 +12°C° 0.1 mm 4 mps 740 mmHg 85%
    12:00 +12°C° 0.1 mm 4 mps 740 mmHg 86%
    13:00 +13°C° 0.1 mm 4 mps 740 mmHg 86%
    14:00 +12°C° 0.2 mm 4 mps 740 mmHg 88%
    15:00 +12°C° 0.2 mm 4 mps 740 mmHg 90%
    16:00 +12°C° 0.2 mm 3 mps 740 mmHg 92%
    17:00 +11°C° 0.2 mm 3 mps 740 mmHg 92%
    18:00 +11°C° 0.2 mm 3 mps 740 mmHg 92%
    19:00 +11°C° 0.2 mm 3 mps 741 mmHg 92%
    20:00 +11°C° 0.1 mm 3 mps 741 mmHg 92%
    21:00 +11°C° 0.1 mm 3 mps 741 mmHg 91%
    22:00 +11°C° 0.1 mm 3 mps 741 mmHg 91%
    23:00 +11°C° 0.1 mm 3 mps 741 mmHg 90%

    Tomorrow, 13 December, Wednesday

    Time Temperature Precipitation Wind Pressure Humidity
    00:00 +11°C° 0.1 mm 3 mps 741 mmHg 90%
    01:00 +11°C° 0.1 mm 4 mps 741 mmHg 89%
    02:00 +11°C° 0.1 mm 4 mps 741 mmHg 89%
    03:00 +11°C° 0.1 mm 4 mps 741 mmHg 89%
    04:00 +11°C° 0.1 mm 4 mps 740 mmHg 90%
    05:00 +11°C° 0.2 mm 4 mps 740 mmHg 90%
    06:00 +10°C° 0.2 mm 4 mps 740 mmHg 90%
    07:00 +10°C° 0.2 mm 4 mps 740 mmHg 90%
    08:00 +11°C° 0.3 mm 4 mps 740 mmHg 89%
    09:00 +12°C° 0.3 mm 4 mps 740 mmHg 87%
    10:00 +12°C° 0.3 mm 5 mps 740 mmHg 85%
    11:00 +12°C° 0.5 mm 5 mps 740 mmHg 84%
    12:00 +13°C° 0.5 mm 5 mps 739 mmHg 83%
    13:00 +13°C° 0.5 mm 5 mps 739 mmHg 83%
    14:00 +12°C° 1 mm 5 mps 739 mmHg 86%
    15:00 +12°C° 1 mm 5 mps 739 mmHg 88%
    16:00 +10°C° 1 mm 5 mps 738 mmHg 91%
    17:00 +11°C° 1.4 mm 4 mps 738 mmHg 92%
    18:00 +11°C° 1.4 mm 4 mps 738 mmHg 93%
    19:00 +11°C° 1.4 mm 4 mps 738 mmHg 94%
    20:00 +11°C° 2.8 mm 4 mps 738 mmHg 94%
    21:00 +10°C° 2.8 mm 4 mps 738 mmHg 95%
    22:00 +10°C° 2.8 mm 4 mps 738 mmHg 96%
    23:00 +10°C° 2.2 mm 4 mps 738 mmHg 96%

    Day after tomorrow, 14 December, Thursday

    Time Temperature Precipitation Wind Pressure Humidity
    00:00 +10°C° 2.2 mm 4 mps 738 mmHg 96%
    01:00 +10°C° 2.2 mm 3 mps 738 mmHg 96%
    02:00 +10°C° 0.3 mm 3 mps 738 mmHg 96%
    03:00 +10°C° 0.3 mm 3 mps 737 mmHg 96%
    04:00 +9°C° 0.3 mm 2 mps 737 mmHg 96%
    05:00 +9°C° 0.1 mm 2 mps 738 mmHg 95%
    06:00 +9°C° 0.1 mm 2 mps 738 mmHg 95%
    07:00 +8°C° 0.1 mm 2 mps 738 mmHg 94%
    08:00 +9°C° 0.1 mm 2 mps 738 mmHg 90%
    09:00 +9°C° 0.1 mm 2 mps 739 mmHg 87%
    10:00 +10°C° 0.1 mm 2 mps 739 mmHg 83%
    11:00 +10°C° 0.1 mm 3 mps 738 mmHg 82%
    12:00 +10°C° 0.1 mm 3 mps 738 mmHg 81%
    13:00 +10°C° 0.1 mm 3 mps 738 mmHg 80%
    14:00 +10°C° 0.1 mm 3 mps 738 mmHg 83%
    15:00 +10°C° 0.1 mm 3 mps 738 mmHg 86%
    16:00 +9°C° 0.1 mm 3 mps 738 mmHg 88%
    17:00 +9°C° 0.1 mm 3 mps 738 mmHg 89%
    18:00 +8°C° 0.1 mm 3 mps 738 mmHg 90%
    19:00 +8°C° 0.1 mm 3 mps 738 mmHg 91%
    20:00 +8°C° 0.1 mm 3 mps 738 mmHg 90%
    21:00 +7°C° 0.1 mm 4 mps 738 mmHg 90%
    22:00 +6°C° 0.1 mm 4 mps 738 mmHg 89%
    23:00 +7°C° 0.1 mm 4 mps 737 mmHg 87%

    15 December, Friday

    Time Temperature Precipitation Wind Pressure Humidity
    00:00 +7°C° 0.1 mm 4 mps 737 mmHg 84%
    01:00 +7°C° 0.1 mm 4 mps 736 mmHg 82%
    02:00 +7°C° 0 mm 4 mps 736 mmHg 83%
    03:00 +7°C° 0 mm 4 mps 736 mmHg 84%
    04:00 +7°C° 0 mm 4 mps 736 mmHg 85%
    05:00 +7°C° 0 mm 4 mps 736 mmHg 84%
    06:00 +7°C° 0 mm 4 mps 736 mmHg 84%
    07:00 +7°C° 0 mm 4 mps 736 mmHg 84%
    08:00 +8°C° 0.1 mm 4 mps 735 mmHg 83%
    09:00 +10°C° 0.1 mm 4 mps 735 mmHg 81%
    10:00 +10°C° 0.1 mm 4 mps 735 mmHg 80%
    11:00 +10°C° 0.5 mm 4 mps 734 mmHg 82%
    12:00 +9°C° 0.5 mm 5 mps 734 mmHg 84%
    13:00 +9°C° 0.5 mm 5 mps 733 mmHg 85%
    14:00 +9°C° 1.2 mm 5 mps 733 mmHg 87%
    15:00 +9°C° 1.2 mm 6 mps 732 mmHg 89%
    16:00 +9°C° 1.2 mm 6 mps 732 mmHg 91%
    17:00 +9°C° 2.1 mm 7 mps 732 mmHg 91%
    18:00 +9°C° 2.1 mm 7 mps 732 mmHg 91%
    19:00 +9°C° 2.1 mm 7 mps 731 mmHg 91%
    20:00 +9°C° 2.6 mm 8 mps 731 mmHg 91%
    21:00 +9°C° 2.6 mm 8 mps 731 mmHg 91%
    22:00 +9°C° 2.6 mm 8 mps 731 mmHg 91%
    23:00 +10°C° 2.7 mm 8 mps 731 mmHg 92%

    16 December, Saturday

    Time Temperature Precipitation Wind Pressure Humidity
    00:00 +10°C° 2.7 mm 8 mps 731 mmHg 93%
    01:00 +10°C° 2.7 mm 8 mps 731 mmHg 94%
    02:00 +10°C° 2.5 mm 8 mps 731 mmHg 94%
    03:00 +10°C° 2.5 mm 8 mps 731 mmHg 93%
    04:00 +10°C° 2.5 mm 8 mps 730 mmHg 93%
    05:00 +10°C° 3 mm 8 mps 730 mmHg 93%
    06:00 +10°C° 3 mm 8 mps 730 mmHg 93%
    07:00 +10°C° 3 mm 7 mps 731 mmHg 93%
    08:00 +10°C° 4.9 mm 7 mps 731 mmHg 93%
    09:00 +10°C° 4.9 mm 7 mps 731 mmHg 93%
    10:00 +10°C° 4.9 mm 7 mps 731 mmHg 93%
    11:00 +10°C° 5.5 mm 6 mps 731 mmHg 93%
    12:00 +10°C° 5.5 mm 6 mps 731 mmHg 93%
    13:00 +10°C° 5.5 mm 5 mps 731 mmHg 93%
    14:00 +11°C° 4.3 mm 4 mps 731 mmHg 94%
    15:00 +10°C° 4.3 mm 3 mps 731 mmHg 95%
    16:00 +10°C° 4.3 mm 2 mps 731 mmHg 95%
    17:00 +9°C° 2.7 mm 2 mps 732 mmHg 95%
    18:00 +9°C° 2.7 mm 2 mps 732 mmHg 95%
    19:00 +9°C° 2.7 mm 3 mps 733 mmHg 95%
    20:00 +8°C° 1.2 mm 2 mps 733 mmHg 94%
    21:00 +8°C° 1.2 mm 2 mps 733 mmHg 92%
    22:00 +8°C° 1.2 mm 2 mps 733 mmHg 91%
    23:00 +8°C° 0.4 mm 2 mps 734 mmHg 90%

    17 December, Sunday

    Time Temperature Precipitation Wind Pressure Humidity
    00:00 +8°C° 0.4 mm 2 mps 734 mmHg 89%
    01:00 +8°C° 0.4 mm 1 mps 734 mmHg 87%
    02:00 +8°C° 0.1 mm 1 mps 734 mmHg 87%
    03:00 +8°C° 0.1 mm 1 mps 734 mmHg 86%
    04:00 +8°C° 0.1 mm 1 mps 734 mmHg 86%
    05:00 +7°C° 0 mm 2 mps 734 mmHg 86%
    06:00 +6°C° 0 mm 2 mps 734 mmHg 87%
    07:00 +6°C° 0 mm 2 mps 734 mmHg 87%
    08:00 +7°C° 0 mm 2 mps 734 mmHg 84%
    09:00 +7°C° 0 mm 2 mps 734 mmHg 80%
    10:00 +8°C° 0 mm 3 mps 735 mmHg 77%
    11:00 +8°C° 0 mm 3 mps 734 mmHg 75%
    12:00 +9°C° 0 mm 2 mps 734 mmHg 72%
    13:00 +9°C° 0 mm 2 mps 734 mmHg 70%
    14:00 +8°C° 0 mm 2 mps 734 mmHg 73%
    15:00 +8°C° 0 mm 2 mps 734 mmHg 76%
    16:00 +7°C° 0 mm 2 mps 734 mmHg 78%
    17:00 +6°C° 0 mm 2 mps 735 mmHg 79%
    18:00 +6°C° 0 mm 2 mps 735 mmHg 80%
    19:00 +5°C° 0 mm 2 mps 735 mmHg 81%
    20:00 +5°C° 0 mm 2 mps 736 mmHg 81%
    21:00 +4°C° 0 mm 2 mps 736 mmHg 81%
    22:00 +3°C° 0 mm 3 mps 737 mmHg 81%
    23:00 +3°C° 0 mm 3 mps 737 mmHg 80%
    Show more